2023-006A (55242 NORAD) Tracking and Keplerian Element Data

This shows tracking and keplerian element data for the satellite.

Feedback or suggestion? Click here.




ElementValue
Catalog55242
Name2023-006A
Epoch Orbit15
Epoch Day14.29450157
Epoch Year2023
RAAN200.7624
Inclination43.2002
Eccentricity0.0009847
Argument of Perigee286.5139
Mean Anonmoly244.7492
Mean Motion15.16807071
Decay Rate0.00017083
L11 55242U 23006A 23014.29450157 .00017083 00000+0 86256-3 0 9990
L22 55242 43.2002 200.7624 0009847 286.5139 244.7492 15.16807071 158



Live tracking and technical data element details for 2023-006A (NORAD 55242). 2023-006A can be tracked NOW for your location showing map with azimuth and elevation plus other details from your city location.







IsCatalogInMostPopularTable: catalog: 55242, numindb: 5
Update: records affected: 1



GetName: 55242 2023-006A

Hit Count: updated at: Tue, 07 Feb 2023 14:15:18 GMT